User: anonymous   Login
Location: Wharf Road Observatory
(44.7802°N, 65.6070°W)
Time: 00:55:50
(UTC-04:00)
Language:

CUTE 1.7 + AOD 2 - Orbit

View from above orbital plane
View from above orbital plane
View from above satellite
View from above satellite

Ground track
Ground track

The orbit data is extracted from the following two-line orbital elements,

1 32785U 08021C   24057.84566162  .00007532  00000-0  69116-3 0  9995
2 32785  97.7423  24.3339 0010709 347.4860  12.6093 14.95104196858903
Epoch (UTC): 26 February 2024 20:17:45
Eccentricity: 0.0010709
inclination: 97.7423°
perigee height: 574 km
apogee height: 589 km
right ascension of ascending node: 24.3339°
argument of perigee: 347.4860°
revolutions per day: 14.95104196
mean anomaly at epoch: 12.6093°
orbit number at epoch: 85890

The dashed part of the orbit path shows where the satellite is in the earth's shadow,  

DLR